Hourly Data Report for September 24, 2017

All times are specified in Local Standard Time (LST). Add 1 hour to adjust for Daylight Saving Time where and when it is observed.

KUGLUKTUK A
NUNAVUT

67°49'00.000" N
115°08'38.000" W
22.60 m
2300903
71938
YCO

Download Data

Hourly Data (September 2017)
Hourly Data Report for September 24, 2017
Temp Definition
°C
Dew Point Temp Definition
°C
Rel Hum Definition
%
Wind Dir Definition
10's deg

Wind Spd Definition
km/h
Visibility Definition
km
Stn Press Definition
kPa
Hmdx Definition


Wind Chill Definition


Weather Definition


TIME
00:00 Legend Double Dagger 2.0 2.0 100 36 3 0.4 101.57     Fog
01:00 Legend Double Dagger 1.6 1.6 100 36 2 0.4 101.56     Fog
02:00 Legend Double Dagger 1.6 1.6 100 36 1 3.2 101.53     Fog
03:00 Legend Double Dagger 1.3 -0.1 90 11 12 19.3 101.51     LegendNANA
04:00 Legend Double Dagger 2.6 0.5 86 12 10 19.3 101.48     LegendNANA
05:00 Legend Double Dagger 2.7 -0.2 82 17 13 24.1 101.46     Mostly Cloudy
06:00 Legend Double Dagger 3.9 0.7 80 12 9 24.1 101.44     LegendNANA
07:00 Legend Double Dagger 4.4 0.9 78 17 10 24.1 101.43     LegendNANA
08:00 Legend Double Dagger 4.3 0.9 79 18 8 24.1 101.40     Mostly Cloudy
09:00 Legend Double Dagger 4.8 1.6 79 19 5 24.1 101.39     LegendNANA
10:00 Legend Double Dagger 6.5 1.7 72 17 18 24.1 101.35     LegendNANA
11:00 Legend Double Dagger 7.9 1.7 65 17 19 24.1 101.29     Mostly Cloudy
12:00 Legend Double Dagger 9.1 1.3 58 16 20 24.1 101.24     LegendNANA
13:00 Legend Double Dagger 9.5 0.1 52 16 21 24.1 101.19     LegendNANA
14:00 Legend Double Dagger 9.8 -1.0 47 15 16 24.1 101.15     Mostly Cloudy
15:00 Legend Double Dagger 10.1 -1.2 45 15 23 24.1 101.09     LegendNANA
16:00 Legend Double Dagger 9.7 -2.0 44 13 17 24.1 101.03     LegendNANA
17:00 Legend Double Dagger 7.4 2.0 68 9 29 24.1 100.98     Mainly Clear
18:00 Legend Double Dagger 6.1 2.4 77 10 19 24.1 100.95     LegendNANA
19:00 Legend Double Dagger 4.4 2.5 87 10 19 24.1 100.90     LegendNANA
20:00 Legend Double Dagger 2.2 -0.9 80 11 10 24.1 100.86     Mainly Clear
21:00 Legend Double Dagger 2.5 -1.6 74 12 12 24.1 100.79     LegendNANA
22:00 Legend Double Dagger 2.6 -1.8 73 13 11 24.1 100.72     LegendNANA
23:00 Legend Double Dagger 2.0 -1.4 78 10 14 24.1 100.67     Mainly Clear

Notes on Data Quality.

Legend

  • E = Estimated
  • M = Missing
  • NA = Not Available
  • ‡ = Partner data that is not subject to review by the National Climate Archives
Date modified: